Find Starlink 3680

NORAD ID: 51969 Int'l Des: 2022-025 Owner: SPXS Country: US Constellation: starlink operational
LEOCIRCULAR

实时位置

正在加载3D地球...

关于 Starlink 3680

正在加载描述...

即将过境

Passes for default location (London). Set your location on the main map for personalized predictions.

高度历史

Loading altitude history...

两行轨道根数

1 51969U 22025P 26125.27604444 .00000611 00000-0 31446-4 0 9998
2 51969 53.1611 121.2321 0001292 88.3122 271.8027 15.31703064229672
Epoch: May 5, 2026 • Age: 7 hours

当前状态

高度 476.4 km
速度 7.63 km/s
星下点 53.29°N, 149.7°E
发射日期 Mar 9, 2022
运行时间 4.1 years
类型 internet

技术详情

分类 Payload
质量 297.00 kg
干质量 275.00 kg
总质量 297.00 kg
长度 0.20 m
直径 2.80 m
跨度 9.00 m
形状 Box + pan
制造商 SPXS
平台类型 Starlink
阶段状态 In Orbit
所有者/国家 SPXS/US

Most Searched